[[{"header":{"parameterUnit":"m.s-1","parameterCategory":1,"la1":30.2991,"la2":30.254,"lo1":-89.0895,"lo2":-89.0444,"dy":0.0017,"dx":0.0017,"nx":28,"ny":28,"refTime":"2025-06-07T21:00:00:Z","depth":0,"parameterNumber":2,"parameterNumberName":"U-component_of_WINDS"},"data":[0,0,0,0,0,0,0,0,0,0,0,0,0,0,0,0,0,0,0,0,0,0,0,0,0,0,0,0,0,0,0,0,0,0,0,0,0,0,0,0,0,0,0,0,0,0,0,0,0,0,0,0,0,0,0,0,0,0,4.773,4.7732,0,4.7924,4.7926,4.7928,4.7914,4.7911,4.7908,4.7905,4.8106,4.8114,4.8121,0,0,0,0,0,0,0,0,0,0,0,0,0,4.7349,4.7356,4.773,4.7732,4.7735,4.7923,4.7926,4.7929,4.7914,4.7911,4.7907,4.7904,4.8103,4.8113,4.8122,0,0,0,0,0,0,0,0,0,0,0,0,0,4.7526,4.7358,4.773,4.775,4.7754,4.7923,4.7926,4.7929,4.7915,4.7911,4.7906,4.7902,4.81,4.8112,4.8124,4.8285,0,0,4.816,4.8166,0,0,0,0,0,0,0,0,4.7516,4.754,4.7745,4.7749,4.7754,4.789,4.7865,4.8049,4.7916,4.7854,4.7905,4.79,4.8038,4.8055,4.81,4.8294,4.8303,4.8161,4.8169,4.8174,4.8177,0,0,0,0,0,0,0,4.7503,4.7531,4.7807,4.7748,4.7753,4.775,4.7771,4.79,4.7968,4.7859,4.7859,4.7882,4.8039,4.8089,4.8105,4.8306,4.8161,4.8172,4.8179,4.8184,4.8638,4.8642,0,0,0,0,0,0,4.7486,4.7521,4.7801,4.7812,4.7622,4.7761,4.7783,4.7851,4.7966,4.798,4.7885,4.788,4.807,4.8091,4.8112,4.8305,4.8174,4.8185,4.8192,4.8633,4.8639,4.8644,0,0,0,0,0,0,4.7478,4.7511,4.7793,4.7667,4.7702,4.7772,4.7848,4.7857,4.7906,4.7986,4.7998,4.7923,4.8068,4.8095,4.8241,4.8312,4.819,4.8201,4.8627,4.8635,4.8641,4.8695,0,0,0,0,0,0,4.7467,4.7508,4.757,4.7668,4.7709,4.7918,4.7852,4.7864,4.7927,4.7922,4.8025,4.8038,4.8066,4.8223,4.8253,4.8327,4.8211,4.8621,4.8631,4.8639,4.8687,4.8703,4.8717,0,0,0,0,0,4.7454,4.7579,4.7574,4.7607,4.7788,4.7923,4.7946,4.7976,4.7933,4.7995,4.8046,4.8034,4.83,4.8238,4.8272,4.835,4.8617,4.8628,4.8638,4.8681,4.87,4.8717,0,0,0,0,0,0,4.7489,4.7592,4.7587,4.7748,4.7826,4.792,4.8,4.7996,4.8089,4.8081,4.8115,4.8138,4.8284,4.8332,4.8261,4.851,4.8453,4.8471,4.8473,4.8493,4.8507,4.8491,4.8221,0,0,0,0,0,4.7515,4.7616,4.7701,4.7834,4.7874,4.793,4.799,4.8006,4.8089,4.8122,4.8184,4.8265,4.8366,4.8433,4.8531,4.8695,4.8716,4.8765,4.878,4.8792,4.8806,4.8894,4.8916,4.868,4.868,4.8679,0,0,4.7571,4.764,4.7701,4.7843,4.7906,4.8008,4.7958,4.807,4.8146,4.8139,4.8279,4.8328,4.8421,4.8575,4.8647,4.862,4.8876,4.8806,4.8815,4.8823,4.8907,4.8929,4.8949,4.8687,4.8686,4.8685,0,0,4.7724,4.7788,4.7904,4.7967,4.8062,4.8098,4.8126,4.822,4.8251,4.8392,4.8389,4.848,4.8655,4.8721,4.8777,4.8953,4.8945,4.8984,4.9061,4.9146,4.9164,4.9181,4.9241,4.9262,4.8999,4.8999,4.8999,0,4.7781,4.7936,4.7965,4.8076,4.8137,4.8135,4.8253,4.8313,4.8436,4.8478,4.8447,4.8664,4.8727,4.8895,4.8937,4.8984,4.9016,4.8971,4.9159,4.9176,4.9192,4.9249,4.9272,4.9003,4.9002,4.9002,4.9002,0,4.8,4.8107,4.819,4.8305,4.8377,4.8491,4.8537,4.8606,4.8615,4.8655,4.8797,4.8873,4.8984,4.9026,4.9038,4.9196,4.9176,4.9152,4.9094,4.9218,4.9272,4.9295,4.9008,4.9007,4.9006,4.9005,0,0,4.818,4.831,4.8339,4.839,4.8494,4.8577,4.8691,4.8799,4.8856,4.8941,4.9035,4.9183,4.916,4.9224,4.9243,4.9317,4.9448,4.9284,4.9286,4.9309,4.9623,4.9639,4.9664,4.9444,4.9449,4.9452,4.9614,0,4.8341,4.8541,4.857,4.8746,4.8844,4.8843,4.8941,4.9015,4.9055,4.9144,4.9188,4.929,4.9255,4.9293,4.9367,4.9416,4.9511,4.9406,4.9531,4.9535,4.9505,4.9693,4.971,4.9859,4.9636,4.964,4.9643,0,4.8556,4.8644,4.8829,4.8917,4.8959,4.9047,4.9147,4.9233,4.9316,4.934,4.941,4.9419,4.9536,4.9474,4.9635,4.9562,4.9616,4.9648,4.9654,4.9665,4.9594,4.9706,4.9908,4.9929,4.9677,4.9674,4.9672,0,4.8665,4.883,4.8962,4.9006,4.9113,4.9174,4.9222,4.9301,4.9363,4.9451,4.9491,4.9592,4.9647,4.9725,4.976,4.9713,4.9918,4.986,4.9939,4.9938,4.998,4.9976,5.0191,5.002,5.0019,5.0019,5.0018,0,4.884,4.8953,4.9011,4.9092,4.9218,4.925,4.9374,4.9419,4.9489,4.9578,4.9585,4.9668,4.9712,4.9802,4.9831,4.9957,4.9983,5.0004,5.001,5.0002,4.9999,5.0036,5.0025,5.0025,5.0024,5.0022,5.0021,0,4.8982,4.9027,4.9169,4.9257,4.9282,4.9371,4.9446,4.9524,4.9563,4.9675,4.9704,4.9765,4.9871,4.9914,5.0046,5.0065,5.0209,5.0209,5.018,5.0181,5.0256,5.0247,5.05,5.0533,5.0342,5.0344,5.0346,0,4.909,4.9176,4.9273,4.9332,4.9381,4.9477,4.954,4.9575,4.964,4.9741,4.9806,4.9911,4.9997,5.0166,5.0222,5.0322,5.0322,5.0404,5.0337,5.0325,5.0319,5.0312,5.032,5.0415,5.0417,5.0418,5.042,0,4.9275,4.9292,4.9382,4.9479,4.9553,4.9632,4.9708,4.9757,4.9803,4.9876,4.9983,5.005,5.0182,5.0286,5.0388,5.0437,5.0436,5.044,5.0463,5.0454,5.0433,5.0442,5.021,5.0434,5.0433,5.0431,5.0431,5.043,4.9401,4.9476,4.9555,4.9655,4.9716,4.9786,4.9863,4.991,5.0,5.0109,5.0125,5.0239,5.0319,5.0455,5.0508,5.0598,5.0577,5.0611,5.0619,5.0626,5.0629,5.0421,5.0617,5.0617,5.0616,5.0616,5.0616,0,4.9584,4.9634,4.9725,4.983,4.9908,4.99,4.9984,5.0049,5.0149,5.0223,5.0307,5.0429,5.0529,5.0593,5.0694,5.0753,5.0755,5.0778,5.0772,5.0783,5.0644,5.0612,5.0774,5.0774,5.0774,5.0774,5.0774,5.0774,4.9687,4.9813,4.9839,4.9995,5.0045,5.0155,5.0203,5.0268,5.0327,5.0462,5.0545,5.0586,5.0655,5.0761,5.0852,5.0868,5.0903,5.0928,5.0942,5.081,5.0793,5.0777,5.0748,5.0936,5.0936,5.1073,5.1075,5.1076]},{"header":{"parameterUnit":"m.s-1","parameterCategory":1,"la1":30.2991,"la2":30.254,"lo1":-89.0895,"lo2":-89.0444,"dy":0.0017,"dx":0.0017,"nx":28,"ny":28,"refTime":"2025-06-07T21:00:00:Z","depth":0,"parameterNumber":3,"parameterNumberName":"V-component_of_WINDS"},"data":[0,0,0,0,0,0,0,0,0,0,0,0,0,0,0,0,0,0,0,0,0,0,0,0,0,0,0,0,0,0,0,0,0,0,0,0,0,0,0,0,0,0,0,0,0,0,0,0,0,0,0,0,0,0,0,0,0,0,2.4963,2.4963,0,2.5017,2.5017,2.5018,2.4979,2.4978,2.4976,2.4974,2.5029,2.5032,2.5035,0,0,0,0,0,0,0,0,0,0,0,0,0,2.4826,2.4829,2.4963,2.4963,2.4964,2.5016,2.5017,2.5018,2.498,2.4978,2.4975,2.4974,2.5028,2.5032,2.5036,0,0,0,0,0,0,0,0,0,0,0,0,0,2.4883,2.4829,2.4963,2.4951,2.4951,2.5016,2.5017,2.5018,2.498,2.4978,2.4975,2.4973,2.5027,2.5032,2.5036,2.5116,0,0,2.505,2.5052,0,0,0,0,0,0,0,0,2.488,2.4888,2.4952,2.4952,2.4952,2.4989,2.4989,2.5051,2.4981,2.4969,2.4974,2.4971,2.5018,2.5023,2.5039,2.5118,2.5121,2.5051,2.5053,2.5055,2.5057,0,0,0,0,0,0,0,2.4876,2.4886,2.4984,2.4953,2.4953,2.4943,2.4948,2.5001,2.5007,2.497,2.4967,2.4974,2.5017,2.5034,2.504,2.5121,2.505,2.5054,2.5057,2.5059,2.5268,2.527,0,0,0,0,0,0,2.4873,2.4883,2.4982,2.4986,2.4909,2.4948,2.4954,2.4979,2.5006,2.5008,2.4976,2.4972,2.5028,2.5034,2.5042,2.5136,2.5055,2.506,2.5062,2.5265,2.5268,2.5271,0,0,0,0,0,0,2.487,2.4882,2.498,2.4933,2.4945,2.4953,2.4982,2.4982,2.4999,2.5011,2.5012,2.4993,2.5026,2.5035,2.5097,2.5137,2.5062,2.5066,2.5262,2.5266,2.527,2.5326,0,0,0,0,0,0,2.4867,2.4882,2.4912,2.4934,2.4948,2.5036,2.4984,2.4985,2.5007,2.5002,2.5027,2.5029,2.5025,2.5091,2.5102,2.5142,2.5069,2.5258,2.5264,2.5268,2.532,2.5331,2.5341,0,0,0,0,0,2.4862,2.4926,2.4914,2.4926,2.4986,2.5038,2.5046,2.504,2.501,2.5041,2.5049,2.5028,2.5131,2.5097,2.511,2.5152,2.5256,2.5262,2.5268,2.5316,2.5329,2.5341,0,0,0,0,0,0,2.4909,2.4929,2.4916,2.4989,2.5012,2.5031,2.507,2.5054,2.5086,2.508,2.5072,2.5078,2.5143,2.5153,2.5116,2.523,2.5189,2.5198,2.5221,2.5233,2.5243,2.524,2.5073,0,0,0,0,0,2.4928,2.4968,2.4983,2.5047,2.5059,2.5062,2.5085,2.5078,2.5102,2.5111,2.5123,2.5147,2.5184,2.5209,2.5245,2.5321,2.5326,2.5357,2.5367,2.5375,2.5383,2.5424,2.5437,2.5292,2.5292,2.5292,0,0,2.4967,2.4983,2.5009,2.5056,2.5073,2.5115,2.5071,2.5117,2.5148,2.5118,2.5178,2.5187,2.5213,2.5282,2.5314,2.5293,2.5424,2.5383,2.539,2.5393,2.5431,2.5445,2.5457,2.5296,2.5295,2.5295,0,0,2.5061,2.5077,2.5131,2.5149,2.5175,2.5177,2.519,2.5211,2.5216,2.5276,2.5254,2.529,2.5355,2.5374,2.5392,2.5491,2.5473,2.5503,2.5556,2.5596,2.5607,2.5618,2.5653,2.5665,2.5511,2.5511,2.5511,0,2.5107,2.5169,2.5161,2.5209,2.523,2.5204,2.5259,2.5276,2.5313,2.5328,2.5304,2.5385,2.54,2.5473,2.5497,2.5513,2.5527,2.55,2.5606,2.5616,2.5626,2.5659,2.5672,2.5514,2.5514,2.5514,2.5513,0,2.5224,2.5267,2.5307,2.5343,2.5368,2.5419,2.5419,2.5446,2.5436,2.5441,2.5501,2.5518,2.5556,2.5573,2.5565,2.5645,2.5631,2.5608,2.5566,2.5643,2.5674,2.5687,2.5519,2.5518,2.5517,2.5516,0,0,2.5349,2.5379,2.5394,2.5409,2.5436,2.5469,2.5518,2.5555,2.5578,2.5603,2.5644,2.5699,2.5677,2.5697,2.5691,2.5726,2.5802,2.5697,2.5698,2.5716,2.5891,2.5909,2.5924,2.579,2.5793,2.5795,2.5889,0,2.5444,2.553,2.5523,2.5604,2.5644,2.562,2.5662,2.5683,2.5688,2.5722,2.5727,2.5766,2.5734,2.5746,2.5779,2.5786,2.5837,2.5779,2.5828,2.583,2.5823,2.594,2.596,2.6048,2.5901,2.5903,2.5905,0,2.5566,2.5595,2.568,2.57,2.5716,2.5755,2.5787,2.582,2.5843,2.5844,2.5866,2.5854,2.5902,2.5859,2.5926,2.5887,2.5906,2.5912,2.5916,2.592,2.5872,2.5948,2.6076,2.609,2.5924,2.5922,2.5921,0,2.5648,2.5709,2.5768,2.5782,2.5806,2.5834,2.5845,2.5865,2.5887,2.5916,2.593,2.5964,2.5983,2.6009,2.6005,2.5974,2.6074,2.603,2.6075,2.6076,2.6098,2.6097,2.6231,2.611,2.611,2.611,2.611,0,2.5755,2.5808,2.5805,2.5841,2.5899,2.5891,2.5949,2.5957,2.5975,2.6011,2.5992,2.6027,2.602,2.6055,2.6053,2.6108,2.6117,2.6119,2.6117,2.6121,2.612,2.6133,2.6127,2.6113,2.6113,2.6112,2.6111,0,2.5857,2.5858,2.592,2.5937,2.5943,2.5985,2.6,2.6034,2.6036,2.6083,2.6094,2.6098,2.6138,2.6137,2.6182,2.618,2.6248,2.624,2.6241,2.6239,2.6284,2.628,2.6432,2.6451,2.6318,2.6319,2.632,0,2.5925,2.5965,2.5987,2.601,2.6023,2.6061,2.6083,2.6076,2.61,2.6128,2.6159,2.6196,2.6226,2.6291,2.6298,2.6332,2.6324,2.6375,2.6329,2.6331,2.6325,2.6322,2.6326,2.6384,2.6386,2.6387,2.6388,0,2.6045,2.6043,2.6077,2.611,2.6137,2.6163,2.6186,2.6206,2.6202,2.623,2.627,2.6293,2.6339,2.6377,2.6409,2.642,2.6404,2.6402,2.6414,2.6418,2.6417,2.6418,2.6265,2.6399,2.6398,2.6397,2.6396,2.6396,2.6133,2.6167,2.6187,2.6224,2.6241,2.6264,2.6296,2.6302,2.6336,2.6373,2.6366,2.6411,2.6431,2.6473,2.6487,2.6522,2.6504,2.6522,2.6526,2.6531,2.6536,2.6411,2.6528,2.6528,2.6527,2.6527,2.6527,0,2.6252,2.6263,2.6298,2.6331,2.636,2.6341,2.6366,2.6392,2.6432,2.6452,2.6482,2.6527,2.6564,2.6573,2.6608,2.6634,2.6627,2.6643,2.6641,2.6644,2.655,2.6536,2.6648,2.6648,2.6648,2.6648,2.6648,2.6648,2.6317,2.6374,2.6374,2.6438,2.6449,2.6493,2.6509,2.6529,2.6545,2.6597,2.6627,2.6633,2.6649,2.6684,2.6716,2.6718,2.6732,2.6751,2.675,2.6662,2.665,2.6639,2.6625,2.6754,2.6754,2.684,2.6841,2.6842]}]]